Terminal Aerodrome Forecast
Issued by NWS

Home | Current Version | Previous Version | Text Only | Print | Product List | Glossary Off
Versions: 1 2 3 4 5 6 7 8 9 10 11 12

000
FTUS43 KTOP 272300
TAFFOE
TAF
KFOE 272320Z 2800/2824 15005KT P6SM SKC
     FM281100 12002KT 5SM MIFG FEW150
     FM281300 16006KT P6SM SCT060=

USA.gov is the U.S. government's official web portal to all federal, state and local government web resources and services.